Regional Weather Roundup
Issued by NWS

Home | Current Version | Previous Version | Text Only | Print | Product List | Glossary Off
Versions: 1 2 3 4 5 6 7 8 9 10 11 12 13 14 15 16 17 18 19 20 21 22 23 24 25 26 27 28 29 30 31 32 33 34 35 36 37 38 39 40 41 42 43 44 45 46 47 48 49 50

386
ASUS43 KIND 220859
RWRIN

WEATHER ROUNDUP FOR INDIANA
NATIONAL WEATHER SERVICE INDIANAPOLIS IN
500 AM EDT SUN APR 22 2018

NOTE: "FAIR" INDICATES FEW OR NO CLOUDS BELOW 12,000 FEET WITH NO
SIGNIFICANT WEATHER AND/OR OBSTRUCTIONS TO VISIBILITY.

* - STATION DOES NOT REPORT WEATHER SUCH AS PRECIPITATION OR FOG.

+ - STATION NOT QUALITY CONTROLLED BY THE NATIONAL WEATHER SERVICE.
    USE DATA WITH CAUTION...ESPECIALLY DEWPOINT AND RELATIVE
    HUMIDITY OBSERVATIONS.

INZ001>003-010>013-019-020-221000-
NORTHWEST INDIANA

CITY           SKY/WX    TMP DP  RH WIND       PRES   REMARKS
KNOX *+        FAIR      41  34  75 CALM      30.35R
MONTICELLO +   FAIR      46  24  42 E5        30.31R

$$

LMZ046-743>745-221000-
SOUTHERN LAKE MICHIGAN

STATION/POSITION TIME  TEMP    WIND        PRES    WAVE
                       AIR SEA DIR/SP/G            HT
                 (UTC) (F)     (DEG/KT/KT) (MB)    (FT)
BURNS HARBOR     0840   42      80/  5/  6 1028.1R
MICHIGAN CITY    0830   44     100/  5/  6   N/A

$$

INZ004-005-014>016-021>024-221000-
NORTH CENTRAL INDIANA

CITY           SKY/WX    TMP DP  RH WIND       PRES   REMARKS
GOSHEN         FAIR      40  27  59 CALM      30.36R
PERU/GRISSOM   CLOUDY   N/A N/A N/A NE12        N/A
SOUTH BEND     CLOUDY    43  29  57 CALM      30.36R
WARSAW +       FAIR      41  23  48 E6        30.34S

$$

INZ006>009-017-018-025>027-221000-
NORTHEAST INDIANA

CITY           SKY/WX    TMP DP  RH WIND       PRES   REMARKS
FORT WAYNE     CLOUDY    42  25  50 NE5       30.35S

$$

INZ028-029-035-036-043>045-051>053-221000-
WEST CENTRAL INDIANA

CITY           SKY/WX    TMP DP  RH WIND       PRES   REMARKS
LAFAYETTE      FAIR      46  29  51 E8        30.31R
TERRE HAUTE    FAIR      48  32  53 NE8       30.26R

$$

INZ030>032-037>040-046>048-054>057-064-065-221000-
CENTRAL INDIANA

CITY           SKY/WX    TMP DP  RH WIND       PRES   REMARKS
INDIANAPOLIS   MOCLDY    47  25  42 E6        30.29R
-EAGLE CREEK   CLOUDY    47  26  44 E3        30.29R
KOKOMO +       FAIR      42  28  57 E9        30.30F
MT COMFORT *+  FAIR      43  32  65 NE5       30.29R
SHELBYVILLE    FAIR      47  27  45 E6        30.27R
ZIONSVILLE +   CLOUDY    45  26  47 E5        30.31R

$$

INZ033-034-041-042-049-050-058-059-221000-
EAST CENTRAL INDIANA

CITY           SKY/WX    TMP DP  RH WIND       PRES   REMARKS
MUNCIE         FAIR      45  23  42 E8        30.30S
RICHMOND +     FAIR      41  28  60 NE10      30.29F

$$

INZ060-061-067>069-081>083-085>088-221000-
SOUTHWEST INDIANA

CITY           SKY/WX    TMP DP  RH WIND       PRES   REMARKS
EVANSVILLE     CLOUDY    54  33  45 NE3       30.20S
HUNTINGBURG +  CLOUDY    54  29  38 E7        30.20F

$$

INZ062-063-066-070>080-084-089>092-221000-
SOUTH CENTRAL AND SOUTHEAST INDIANA

CITY           SKY/WX    TMP DP  RH WIND       PRES   REMARKS
BLOOMINGTON    FAIR      50  26  39 E7        30.25R
SEYMOUR +      FAIR      50  32  50 NE5       30.26S

$$





USA.gov is the U.S. government's official web portal to all federal, state and local government web resources and services.